ONEWEB-0689, 61597

Orbit data source: Space-Track

ONEWEB-0689, 61597 is a payload satellite owned by Eut. One Web (UK) in LEO that was launched on Sun, 20 Oct 2024 UTC via an FALCON 9 launch vehicle from the Air Force Western Test Range (AFWTR). Payload-class satellites include a variety of spacecraft equipped with specific instruments for various scientific and technological missions. These include communications satellites like Starlink; space stations such as the ISS; scientific satellites like the Hubble; Earth observation satellites from companies like Planet Labs, Umbra, and HawkEye 360; GPS; miniature CubeSats for education and research; and military/defense satellites.

Loading next visibility...
Identifier
61597, 2024-188D
Orbit
LEO
Country
Flag of UKUK
Related business
Manufacturer
One Web
Mission
Operational Commercial Communications
Bus & Motor
ARROW, Unknown motor
Mass
148 kg wet, ~140 kg dry
Launch date (UTC)
2024-10-20 (1 year ago)
Launch vehicle
FALCON 9
Launch site
Air Force Western Test Range (AFWTR)
Object type
Payload
Rocket body
Debris
Shape & HBR
Trap Box + 2 Pan, 6.7 m
Radar Cross Section
3.464 m², Large (>1 m²)

Expand to show TLE details & history
Last TLE update: 8 hours ago

TLE from 8 hours ago
0 ONEWEB-0689
1 61597U 24188D   25299.87526031  .00000368  00000-0  10013-2 0  9994
2 61597  87.8818  67.5056 0001773  87.9402 272.1929 13.11419119 53873
Epoch: 2025-10-26T21:00Z
TLE epoch observation values (Epoch: 2025-10-26T21:00:22.490Z)
Latitude
-0.00003°
Longitude
76.92671°
Altitude
1,220.512 km
Speed
7.244 km/s
True Right ascension
04h 30m 01s
True Declination
0° 00' 00"
Sunlit
Object was in full shadow at epoch
Visualization orbit readout
Latitude
Unknown
Longitude
Unknown
Altitude
Unknown
Speed
Unknown
Apparent Right ascension
Unknown
Apparent Declination
Unknown
Sunlit
N/A
Visualization observer readout
Local Sidereal Time
00:36:08
Azimuth
Unknown
Elevation
Unknown
Doppler factor
Unknown
Orbital elements
Apogee altitude
1,216.139 km
Perigee altitude
1,213.446 km
Semi-major axis
7,592.93 km
Eccentricity
0.00018
Inclination
87.8818°
RAAN
67.5056°
Arg. of periapsis
87.9402°
True anomaly
272.1726°
Mean anomaly
272.1929°
Eccentric anomaly
272.18275°
Mean motion
3.28042 °/min
Orbital period
109.74 mins
BSTAR
0.0010013
Loading maneuver chart data...
Computing Atmospheric mass density...
Loading historical data...
Loading historical data...
Loading historical data...
Loading historical data...
Loading historical data...
Loading historical data...
Loading historical data...

Documentation

Showing up to 5 results
|